| time (UTC) | temp F | wind direction | speed knots | gust knots | rain 1hr in | rain 24hr in | rain mn in | humidity % | barometer mb |
| 20260507201110 | 51 | 266 | 0.0 | 2.6 | 0.00 | 0.27 | 0.28 | 96 | 1017.3 |
| 20260507200807 | 51 | 266 | 1.7 | 2.6 | 0.00 | 0.27 | 0.28 | 96 | 1017.4 |
| 20260507200504 | 51 | 266 | 0.0 | 0.0 | 0.00 | 0.27 | 0.28 | 96 | 1017.2 |
| 20260507200200 | 51 | 266 | 0.0 | 0.0 | 0.03 | 0.27 | 0.28 | 96 | 1017.3 |
| 20260507195857 | 52 | 266 | 0.0 | 0.0 | 0.03 | 0.27 | 0.28 | 96 | 1017.2 |
| 20260507195554 | 52 | 257 | 0.0 | 0.0 | 0.03 | 0.27 | 0.28 | 96 | 1017.1 |
| 20260507195250 | 52 | 256 | 0.0 | 0.0 | 0.03 | 0.27 | 0.28 | 96 | 1017.2 |
| 20260507194947 | 52 | 256 | 0.0 | 0.0 | 0.03 | 0.27 | 0.28 | 96 | 1017.0 |
| 20260507194644 | 51 | 259 | 0.0 | 0.0 | 0.03 | 0.27 | 0.28 | 95 | 1017.0 |
| 20260507194340 | 51 | 258 | 0.0 | 0.0 | 0.03 | 0.27 | 0.28 | 95 | 1017.1 |
| 20260507194037 | 51 | 257 | 0.0 | 0.9 | 0.03 | 0.27 | 0.28 | 95 | 1016.9 |
| 20260507193733 | 51 | 256 | 0.0 | 1.7 | 0.03 | 0.27 | 0.28 | 95 | 1017.0 |
| 20260507193430 | 51 | 258 | 0.0 | 0.9 | 0.07 | 0.27 | 0.28 | 95 | 1016.7 |
| 20260507193127 | 51 | 263 | 0.0 | 1.7 | 0.07 | 0.27 | 0.27 | 95 | 1016.7 |
| 20260507192823 | 51 | 260 | 0.0 | 4.3 | 0.11 | 0.27 | 0.27 | 94 | 1016.7 |
| 20260507192519 | 51 | 261 | 0.9 | 2.6 | 0.11 | 0.27 | 0.27 | 94 | 1016.6 |
| 20260507192216 | 51 | 258 | 0.9 | 3.5 | 0.07 | 0.23 | 0.26 | 94 | 1016.7 |
| 20260507191913 | 51 | 257 | 1.7 | 3.5 | 0.11 | 0.23 | 0.26 | 94 | 1016.6 |
| 20260507191610 | 51 | 259 | 0.9 | 3.5 | 0.11 | 0.23 | 0.26 | 93 | 1016.4 |
| 20260507191306 | 51 | 263 | 0.9 | 4.3 | 0.15 | 0.23 | 0.26 | 93 | 1016.0 |
| 20260507191003 | 52 | 264 | 0.9 | 4.3 | 0.15 | 0.23 | 0.26 | 93 | 1016.0 |
| 20260507190659 | 51 | 262 | 0.9 | 7.0 | 0.15 | 0.23 | 0.26 | 93 | 1016.3 |
| 20260507190356 | 51 | 262 | 2.6 | 3.5 | 0.11 | 0.23 | 0.25 | 93 | 1016.5 |
| 20260507190053 | 52 | 263 | 0.0 | 1.7 | 0.15 | 0.23 | 0.25 | 93 | 1016.3 |
| 20260507185749 | 52 | 256 | 0.0 | 3.5 | 0.11 | 0.23 | 0.24 | 92 | 1016.4 |
| 20260507185446 | 52 | 265 | 1.7 | 4.3 | 0.11 | 0.23 | 0.24 | 92 | 1016.3 |
| 20260507185142 | 52 | 266 | 0.9 | 4.3 | 0.11 | 0.23 | 0.22 | 92 | 1016.2 |
| 20260507184839 | 52 | 263 | 0.0 | 5.2 | 0.15 | 0.23 | 0.22 | 92 | 1016.3 |
| 20260507184536 | 52 | 264 | 0.0 | 12.2 | 0.15 | 0.23 | 0.22 | 92 | 1016.1 |
| 20260507184232 | 52 | 266 | 7.0 | 12.2 | 0.19 | 0.23 | 0.22 | 92 | 1016.1 |
| 20260507183929 | 52 | 266 | 6.1 | 10.4 | 0.19 | 0.19 | 0.22 | 92 | 1016.2 |
| 20260507183626 | 52 | 266 | 1.7 | 7.0 | 0.19 | 0.19 | 0.20 | 93 | 1016.0 |
| 20260507183322 | 52 | 266 | 2.6 | 5.2 | 0.15 | 0.15 | 0.18 | 93 | 1016.3 |
| 20260507183019 | 53 | 266 | 1.7 | 4.3 | 0.15 | 0.15 | 0.16 | 93 | 1016.3 |
| 20260507182716 | 53 | 266 | 1.7 | 4.3 | 0.15 | 0.15 | 0.16 | 92 | 1016.5 |
| 20260507182412 | 53 | 266 | 1.7 | 1.7 | 0.15 | 0.15 | 0.15 | 92 | 1016.5 |
| 20260507182109 | 53 | 262 | 0.0 | 1.7 | 0.11 | 0.11 | 0.14 | 91 | 1016.4 |
| 20260507181806 | 53 | 247 | 0.0 | 1.7 | 0.11 | 0.11 | 0.13 | 90 | 1016.5 |
| 20260507181502 | 53 | 241 | 0.0 | 1.7 | 0.11 | 0.11 | 0.11 | 89 | 1016.8 |
| 20260507181158 | 53 | 221 | 0.9 | 2.6 | 0.07 | 0.07 | 0.11 | 88 | 1016.9 |
| 20260507180855 | 54 | 227 | 0.9 | 3.5 | 0.07 | 0.07 | 0.11 | 87 | 1016.8 |
| 20260507180551 | 54 | 230 | 0.0 | 7.8 | 0.07 | 0.07 | 0.11 | 86 | 1016.9 |
| 20260507180248 | 53 | 226 | 4.3 | 7.0 | 0.07 | 0.07 | 0.09 | 87 | 1016.5 |
| 20260507175945 | 53 | 224 | 5.2 | 7.0 | 0.07 | 0.07 | 0.09 | 87 | 1016.1 |
| 20260507175641 | 53 | 228 | 0.9 | 4.3 | 0.07 | 0.07 | 0.09 | 88 | 1015.7 |
| 20260507175338 | 53 | 218 | 0.0 | 5.2 | 0.07 | 0.07 | 0.09 | 88 | 1015.6 |
| 20260507175035 | 53 | 207 | 3.5 | 11.3 | 0.07 | 0.07 | 0.09 | 87 | 1015.2 |
| 20260507174731 | 53 | 189 | 4.3 | 11.3 | 0.07 | 0.07 | 0.07 | 85 | 1015.4 |
| 20260507174428 | 54 | 176 | 4.3 | 8.7 | 0.03 | 0.03 | 0.05 | 85 | 1015.0 |
| 20260507174124 | 54 | 226 | 1.7 | 4.3 | 0.03 | 0.03 | 0.03 | 85 | 1014.8 |
| 20260507173821 | 55 | 242 | 2.6 | 10.4 | 0.00 | 0.00 | 0.02 | 83 | 1015.0 |
| 20260507173518 | 55 | 281 | 7.0 | 11.3 | 0.00 | 0.00 | 0.01 | 80 | 1014.8 |
| 20260507173214 | 56 | 266 | 8.7 | 17.4 | 0.03 | 0.03 | 0.00 | 78 | 1015.1 |
| 20260507172911 | 56 | 266 | 4.3 | 17.4 | 0.03 | 0.03 | 0.00 | 76 | 1015.1 |
| 20260507172608 | 56 | 266 | 0.9 | 9.6 | 0.03 | 0.03 | 0.00 | 75 | 1014.7 |
| 20260507172307 | 56 | 265 | 3.5 | 11.3 | 0.03 | 0.03 | 0.00 | 75 | 1014.3 |
| 20260507172001 | 56 | 263 | 3.5 | 11.3 | 0.03 | 0.03 | 0.00 | 75 | 1014.8 |
| 20260507171657 | 56 | 262 | 4.3 | 8.7 | 0.03 | 0.03 | 0.00 | 76 | 1014.3 |
| 20260507171353 | 56 | 262 | 4.3 | 8.7 | 0.03 | 0.03 | 0.00 | 76 | 1014.7 |
| 20260507171050 | 56 | 262 | 7.0 | 8.7 | 0.03 | 0.03 | 0.00 | 75 | 1014.7 |
| 20260507170747 | 57 | 260 | 6.1 | 10.4 | 0.03 | 0.03 | 0.00 | 74 | 1014.5 |
| 20260507170443 | 57 | 258 | 7.8 | 10.4 | 0.03 | 0.03 | 0.00 | 72 | 1014.8 |
| 20260507170141 | 59 | 257 | 8.7 | 9.6 | 0.03 | 0.03 | 0.00 | 69 | 1014.7 |
| 20260507165836 | 59 | 256 | 6.1 | 15.6 | 0.03 | 0.03 | 0.00 | 67 | 1014.6 |
| 20260507165532 | 60 | 254 | 7.0 | 9.6 | 0.03 | 0.03 | 0.00 | 64 | 1014.7 |
| 20260507165229 | 60 | 253 | 4.3 | 9.6 | 0.03 | 0.03 | 0.00 | 63 | 1014.6 |
| 20260507164926 | 60 | 253 | 4.3 | 10.4 | 0.03 | 0.03 | 0.00 | 61 | 1014.6 |
| 20260507164622 | 61 | 252 | 4.3 | 9.6 | 0.03 | 0.03 | 0.00 | 61 | 1014.4 |
| 20260507164319 | 61 | 252 | 3.5 | 10.4 | 0.03 | 0.03 | 0.00 | 61 | 1014.2 |
| 20260507164016 | 61 | 252 | 6.1 | 10.4 | 0.03 | 0.03 | 0.00 | 61 | 1014.0 |
| 20260507163712 | 62 | 252 | 4.3 | 13.0 | 0.03 | 0.03 | 0.00 | 60 | 1013.9 |
| 20260507163409 | 63 | 251 | 7.0 | 11.3 | 0.03 | 0.03 | 0.00 | 59 | 1013.7 |
| 20260507163105 | 65 | 250 | 4.3 | 13.0 | 0.03 | 0.03 | 0.00 | 59 | 1013.8 |
| 20260507162802 | 68 | 252 | 2.6 | 13.0 | 0.03 | 0.03 | 0.00 | 60 | 1013.4 |
| 20260507162459 | 68 | 257 | 0.9 | 3.5 | 0.03 | 0.03 | 0.00 | 61 | 1013.0 |
| 20260507162155 | 68 | 255 | 2.6 | 3.5 | 0.03 | 0.03 | 0.00 | 61 | 1012.8 |
| 20260507161852 | 68 | 256 | 1.7 | 3.5 | 0.03 | 0.03 | 0.00 | 61 | 1012.7 |
| 20260507161548 | 68 | 256 | 0.0 | 4.3 | 0.03 | 0.03 | 0.00 | 61 | 1012.8 |
| 20260507161244 | 69 | 256 | 0.0 | 5.2 | 0.03 | 0.03 | 0.00 | 61 | 1012.4 |
| 20260507160940 | 69 | 256 | 1.7 | 5.2 | 0.03 | 0.03 | 0.00 | 60 | 1012.5 |
| 20260507160636 | 69 | 256 | 1.7 | 2.6 | 0.03 | 0.03 | 0.00 | 60 | 1012.5 |
| 20260507160332 | 69 | 256 | 0.0 | 3.5 | 0.03 | 0.03 | 0.00 | 60 | 1012.2 |
| 20260507160029 | 69 | 255 | 0.9 | 4.3 | 0.03 | 0.03 | 0.00 | 60 | 1012.3 |
| 20260507155725 | 69 | 256 | 3.5 | 5.2 | 0.03 | 0.03 | 0.00 | 59 | 1012.1 |
| 20260507155422 | 69 | 257 | 2.6 | 5.2 | 0.03 | 0.03 | 0.00 | 59 | 1012.1 |
| 20260507155118 | 70 | 257 | 1.7 | 7.0 | 0.03 | 0.03 | 0.00 | 58 | 1012.2 |
| 20260507154814 | 71 | 257 | 3.5 | 7.0 | 0.03 | 0.03 | 0.00 | 57 | 1012.1 |
| 20260507154510 | 72 | 256 | 1.7 | 3.5 | 0.03 | 0.03 | 0.00 | 55 | 1012.3 |
| 20260507154206 | 72 | 256 | 0.9 | 8.7 | 0.03 | 0.03 | 0.00 | 55 | 1012.3 |
| 20260507153902 | 71 | 258 | 1.7 | 8.7 | 0.03 | 0.03 | 0.00 | 56 | 1012.2 |
| 20260507153559 | 72 | 257 | 1.7 | 3.5 | 0.03 | 0.03 | 0.00 | 56 | 1012.1 |
| 20260507153255 | 73 | 257 | 1.7 | 4.3 | 0.03 | 0.03 | 0.00 | 54 | 1012.0 |
| 20260507152952 | 73 | 257 | 1.7 | 7.0 | 0.03 | 0.03 | 0.00 | 54 | 1012.2 |
| 20260507152649 | 73 | 257 | 2.6 | 5.2 | 0.03 | 0.03 | 0.00 | 54 | 1012.1 |
| 20260507152345 | 72 | 257 | 1.7 | 5.2 | 0.03 | 0.03 | 0.00 | 54 | 1012.3 |
| 20260507152042 | 73 | 256 | 4.3 | 5.2 | 0.03 | 0.03 | 0.00 | 53 | 1012.3 |
| 20260507151738 | 73 | 256 | 2.6 | 3.5 | 0.03 | 0.03 | 0.00 | 52 | 1012.1 |
| 20260507151435 | 73 | 256 | 1.7 | 3.5 | 0.03 | 0.03 | 0.00 | 52 | 1012.1 |
| 20260507151132 | 73 | 256 | 1.7 | 8.7 | 0.03 | 0.03 | 0.00 | 52 | 1012.0 |
| 20260507150828 | 72 | 256 | 2.6 | 8.7 | 0.03 | 0.03 | 0.00 | 52 | 1012.1 |
| 20260507150524 | 73 | 258 | 3.5 | 4.3 | 0.03 | 0.03 | 0.00 | 51 | 1012.2 |
| 20260507150221 | 73 | 258 | 0.9 | 3.5 | 0.03 | 0.03 | 0.00 | 50 | 1012.1 |
| 20260507145917 | 73 | 257 | 2.6 | 5.2 | 0.03 | 0.03 | 0.00 | 49 | 1011.9 |
| 20260507145614 | 74 | 256 | 1.7 | 5.2 | 0.03 | 0.03 | 0.00 | 50 | 1011.8 |
| 20260507145309 | 74 | 256 | 0.9 | 5.2 | 0.03 | 0.03 | 0.00 | 50 | 1012.0 |
| 20260507145004 | 73 | 254 | 0.9 | 4.3 | 0.03 | 0.03 | 0.00 | 50 | 1012.0 |
| 20260507144701 | 73 | 253 | 3.5 | 4.3 | 0.03 | 0.03 | 0.00 | 52 | 1012.2 |
| 20260507144357 | 72 | 254 | 2.6 | 7.0 | 0.03 | 0.03 | 0.00 | 52 | 1012.2 |
| 20260507144054 | 72 | 254 | 2.6 | 7.8 | 0.03 | 0.03 | 0.00 | 52 | 1012.3 |
| 20260507143751 | 70 | 255 | 4.3 | 7.8 | 0.03 | 0.03 | 0.00 | 53 | 1012.2 |
| 20260507143447 | 70 | 256 | 4.3 | 7.8 | 0.03 | 0.03 | 0.00 | 54 | 1012.2 |
| 20260507143144 | 71 | 254 | 3.5 | 7.8 | 0.03 | 0.03 | 0.00 | 52 | 1012.0 |
| 20260507142840 | 71 | 253 | 4.3 | 5.2 | 0.03 | 0.03 | 0.00 | 52 | 1012.2 |
| 20260507142537 | 72 | 252 | 2.6 | 11.3 | 0.03 | 0.03 | 0.00 | 52 | 1012.4 |
| 20260507142234 | 72 | 251 | 2.6 | 9.6 | 0.03 | 0.03 | 0.00 | 51 | 1012.1 |
| 20260507141930 | 72 | 252 | 0.9 | 9.6 | 0.03 | 0.03 | 0.00 | 52 | 1012.2 |
| 20260507141626 | 73 | 249 | 5.2 | 8.7 | 0.03 | 0.03 | 0.00 | 51 | 1012.3 |
| 20260507141323 | 73 | 249 | 2.6 | 8.7 | 0.03 | 0.03 | 0.00 | 49 | 1012.2 |
| 20260507141019 | 73 | 250 | 2.6 | 5.2 | 0.03 | 0.03 | 0.00 | 51 | 1012.4 |
| 20260507140716 | 72 | 251 | 2.6 | 5.2 | 0.03 | 0.03 | 0.00 | 53 | 1012.3 |
| 20260507140413 | 72 | 252 | 1.7 | 5.2 | 0.03 | 0.03 | 0.00 | 53 | 1012.2 |
| 20260507140109 | 71 | 251 | 1.7 | 5.2 | 0.03 | 0.03 | 0.00 | 53 | 1012.4 |
| 20260507135806 | 71 | 251 | 3.5 | 5.2 | 0.03 | 0.03 | 0.00 | 53 | 1012.4 |
| 20260507135503 | 71 | 251 | 0.9 | 7.0 | 0.03 | 0.03 | 0.00 | 51 | 1012.6 |
| 20260507135200 | 72 | 250 | 2.6 | 5.2 | 0.03 | 0.03 | 0.00 | 51 | 1012.3 |
| 20260507134855 | 72 | 250 | 1.7 | 3.5 | 0.03 | 0.03 | 0.00 | 51 | 1012.3 |
| 20260507134552 | 71 | 250 | 0.0 | 4.3 | 0.03 | 0.03 | 0.00 | 52 | 1012.6 |
| 20260507134249 | 71 | 250 | 0.9 | 7.0 | 0.03 | 0.03 | 0.00 | 52 | 1012.4 |
| 20260507133945 | 71 | 251 | 5.2 | 7.0 | 0.03 | 0.03 | 0.00 | 52 | 1012.3 |
| 20260507133642 | 71 | 251 | 1.7 | 9.6 | 0.03 | 0.03 | 0.00 | 54 | 1012.8 |
| 20260507133339 | 71 | 251 | 6.1 | 9.6 | 0.03 | 0.03 | 0.00 | 53 | 1012.6 |
| 20260507133035 | 72 | 252 | 1.7 | 4.3 | 0.03 | 0.03 | 0.00 | 53 | 1012.7 |
| 20260507132732 | 71 | 254 | 1.7 | 5.2 | 0.03 | 0.03 | 0.00 | 52 | 1012.6 |
| 20260507132428 | 72 | 254 | 0.0 | 7.0 | 0.03 | 0.03 | 0.00 | 53 | 1012.6 |
| 20260507132125 | 73 | 254 | 2.6 | 7.0 | 0.03 | 0.03 | 0.00 | 53 | 1012.5 |
| 20260507131822 | 74 | 254 | 2.6 | 5.2 | 0.03 | 0.03 | 0.00 | 52 | 1012.6 |
| 20260507131518 | 73 | 253 | 0.0 | 7.0 | 0.03 | 0.03 | 0.00 | 51 | 1012.8 |
| 20260507131215 | 72 | 253 | 2.6 | 7.0 | 0.03 | 0.03 | 0.00 | 52 | 1012.5 |
| 20260507130912 | 72 | 254 | 1.7 | 7.0 | 0.03 | 0.03 | 0.00 | 52 | 1012.7 |
| 20260507130608 | 72 | 255 | 1.7 | 4.3 | 0.03 | 0.03 | 0.00 | 53 | 1012.8 |
| 20260507130305 | 72 | 255 | 0.9 | 5.2 | 0.03 | 0.03 | 0.00 | 53 | 1012.7 |
| 20260507130001 | 72 | 254 | 4.3 | 8.7 | 0.03 | 0.03 | 0.00 | 53 | 1012.7 |
| 20260507125658 | 74 | 252 | 4.3 | 7.8 | 0.03 | 0.03 | 0.00 | 51 | 1012.8 |
| 20260507125355 | 74 | 251 | 1.7 | 4.3 | 0.03 | 0.03 | 0.00 | 52 | 1013.0 |
| 20260507125051 | 73 | 251 | 2.6 | 5.2 | 0.03 | 0.03 | 0.00 | 52 | 1012.9 |
| 20260507124748 | 71 | 253 | 4.3 | 5.2 | 0.03 | 0.03 | 0.00 | 55 | 1013.0 |
| 20260507124445 | 72 | 254 | 1.7 | 7.0 | 0.03 | 0.03 | 0.00 | 54 | 1013.0 |
| 20260507124141 | 71 | 255 | 2.6 | 7.0 | 0.03 | 0.03 | 0.00 | 55 | 1012.9 |
| 20260507123838 | 71 | 257 | 1.7 | 9.6 | 0.03 | 0.03 | 0.00 | 53 | 1013.0 |
| 20260507123535 | 72 | 256 | 2.6 | 9.6 | 0.03 | 0.03 | 0.00 | 54 | 1012.7 |
| 20260507123231 | 71 | 258 | 1.7 | 9.6 | 0.03 | 0.03 | 0.00 | 54 | 1013.1 |
| 20260507122928 | 71 | 259 | 0.0 | 5.2 | 0.03 | 0.03 | 0.00 | 53 | 1012.9 |
| 20260507122624 | 72 | 259 | 0.9 | 4.3 | 0.03 | 0.03 | 0.00 | 52 | 1013.1 |
| 20260507122321 | 72 | 258 | 2.6 | 7.0 | 0.03 | 0.03 | 0.00 | 52 | 1013.2 |
| 20260507122018 | 73 | 256 | 3.5 | 7.0 | 0.03 | 0.03 | 0.00 | 52 | 1013.1 |
| 20260507121714 | 74 | 254 | 1.7 | 2.6 | 0.03 | 0.03 | 0.00 | 51 | 1013.1 |
| 20260507121411 | 73 | 251 | 1.7 | 3.5 | 0.03 | 0.03 | 0.00 | 52 | 1013.3 |
| 20260507121107 | 72 | 251 | 1.7 | 4.3 | 0.03 | 0.03 | 0.00 | 54 | 1013.2 |
| 20260507120804 | 72 | 252 | 3.5 | 4.3 | 0.03 | 0.03 | 0.00 | 54 | 1013.3 |
| 20260507120501 | 71 | 255 | 1.7 | 7.0 | 0.03 | 0.03 | 0.00 | 55 | 1013.2 |
| 20260507120157 | 70 | 259 | 4.3 | 7.0 | 0.03 | 0.03 | 0.00 | 57 | 1013.4 |
| 20260507115854 | 69 | 260 | 4.3 | 11.3 | 0.03 | 0.03 | 0.00 | 57 | 1016.1 |
| 20260507115551 | 70 | 260 | 4.3 | 11.3 | 0.03 | 0.03 | 0.00 | 58 | 1016.2 |
| 20260507115247 | 70 | 261 | 0.9 | 5.2 | 0.03 | 0.03 | 0.00 | 58 | 1016.2 |
| 20260507114944 | 69 | 261 | 1.7 | 4.3 | 0.03 | 0.03 | 0.00 | 59 | 1016.1 |
| 20260507114641 | 70 | 260 | 1.7 | 4.3 | 0.03 | 0.03 | 0.00 | 57 | 1016.3 |
| 20260507114337 | 71 | 259 | 2.6 | 4.3 | 0.03 | 0.03 | 0.00 | 57 | 1016.4 |
| 20260507114034 | 71 | 257 | 1.7 | 5.2 | 0.03 | 0.03 | 0.00 | 56 | 1016.3 |
| 20260507113730 | 71 | 257 | 0.9 | 4.3 | 0.03 | 0.03 | 0.00 | 56 | 1016.2 |
| 20260507113427 | 70 | 257 | 2.6 | 7.0 | 0.03 | 0.03 | 0.00 | 55 | 1016.2 |
| 20260507113124 | 71 | 257 | 3.5 | 5.2 | 0.03 | 0.03 | 0.00 | 54 | 1016.1 |
| 20260507112820 | 71 | 257 | 2.6 | 8.7 | 0.03 | 0.03 | 0.00 | 54 | 1016.3 |
| 20260507112517 | 71 | 256 | 5.2 | 8.7 | 0.03 | 0.03 | 0.00 | 56 | 1016.1 |
| 20260507112214 | 71 | 255 | 1.7 | 7.0 | 0.03 | 0.03 | 0.00 | 56 | 1016.3 |
| 20260507111910 | 70 | 255 | 2.6 | 7.0 | 0.03 | 0.03 | 0.00 | 54 | 1016.3 |
| 20260507111607 | 70 | 257 | 2.6 | 7.0 | 0.03 | 0.03 | 0.00 | 54 | 1016.4 |
| 20260507111304 | 72 | 259 | 5.2 | 7.8 | 0.03 | 0.03 | 0.00 | 52 | 1016.2 |
| 20260507111000 | 72 | 261 | 0.9 | 3.5 | 0.03 | 0.03 | 0.00 | 53 | 1016.3 |
| 20260507110657 | 73 | 260 | 0.9 | 2.6 | 0.03 | 0.03 | 0.00 | 52 | 1016.6 |
| 20260507110353 | 71 | 260 | 0.0 | 5.2 | 0.03 | 0.03 | 0.00 | 54 | 1016.5 |
| 20260507110050 | 70 | 259 | 0.0 | 5.2 | 0.03 | 0.03 | 0.00 | 57 | 1016.4 |
| 20260507105747 | 69 | 261 | 1.7 | 4.3 | 0.03 | 0.03 | 0.00 | 57 | 1016.4 |
| 20260507105443 | 69 | 264 | 0.9 | 5.2 | 0.03 | 0.03 | 0.00 | 57 | 1016.4 |
| 20260507105140 | 70 | 264 | 3.5 | 5.2 | 0.03 | 0.03 | 0.00 | 56 | 1016.8 |
| 20260507104837 | 70 | 265 | 1.7 | 3.5 | 0.03 | 0.03 | 0.00 | 55 | 1016.5 |
| 20260507104533 | 70 | 266 | 0.9 | 2.6 | 0.03 | 0.03 | 0.00 | 55 | 1016.6 |
| 20260507104230 | 69 | 266 | 0.0 | 5.2 | 0.03 | 0.03 | 0.00 | 58 | 1016.8 |
| 20260507103927 | 69 | 266 | 2.6 | 4.3 | 0.03 | 0.03 | 0.00 | 57 | 1016.6 |
| 20260507103623 | 70 | 266 | 1.7 | 5.2 | 0.03 | 0.03 | 0.00 | 57 | 1016.6 |
| 20260507103320 | 70 | 266 | 2.6 | 5.2 | 0.03 | 0.03 | 0.00 | 57 | 1016.6 |
| 20260507103016 | 71 | 266 | 0.9 | 2.6 | 0.03 | 0.03 | 0.00 | 56 | 1016.6 |
| 20260507102713 | 70 | 266 | 1.7 | 2.6 | 0.03 | 0.03 | 0.00 | 57 | 1016.6 |
| 20260507102410 | 69 | 266 | 0.0 | 4.3 | 0.03 | 0.03 | 0.00 | 59 | 1016.7 |
| 20260507102106 | 69 | 266 | 3.5 | 4.3 | 0.03 | 0.03 | 0.00 | 59 | 1016.9 |
| 20260507101803 | 69 | 266 | 0.0 | 5.2 | 0.03 | 0.03 | 0.00 | 59 | 1016.9 |
| 20260507101500 | 69 | 266 | 2.6 | 5.2 | 0.03 | 0.03 | 0.00 | 60 | 1016.8 |
| 20260507101156 | 69 | 266 | 0.0 | 5.2 | 0.03 | 0.03 | 0.00 | 60 | 1017.0 |
| 20260507100853 | 69 | 266 | 0.9 | 4.3 | 0.03 | 0.03 | 0.00 | 60 | 1017.0 |
| 20260507100550 | 68 | 266 | 2.6 | 4.3 | 0.03 | 0.03 | 0.00 | 60 | 1016.8 |
| 20260507100246 | 68 | 266 | 2.6 | 4.3 | 0.03 | 0.03 | 0.00 | 61 | 1017.0 |
| 20260507095943 | 68 | 266 | 0.0 | 3.5 | 0.03 | 0.03 | 0.00 | 61 | 1017.1 |
| 20260507095640 | 67 | 266 | 2.6 | 4.3 | 0.03 | 0.03 | 0.00 | 62 | 1016.8 |
| 20260507095335 | 67 | 266 | 2.6 | 4.3 | 0.03 | 0.03 | 0.00 | 63 | 1017.2 |
| 20260507095032 | 67 | 266 | 0.0 | 4.3 | 0.03 | 0.03 | 0.00 | 64 | 1016.9 |
| 20260507094729 | 67 | 266 | 2.6 | 3.5 | 0.03 | 0.03 | 0.00 | 64 | 1017.1 |
| 20260507094425 | 68 | 266 | 2.6 | 3.5 | 0.03 | 0.03 | 0.00 | 63 | 1016.9 |
| 20260507094122 | 68 | 266 | 0.0 | 3.5 | 0.03 | 0.03 | 0.00 | 63 | 1017.1 |
| 20260507093819 | 68 | 266 | 0.9 | 3.5 | 0.03 | 0.03 | 0.00 | 63 | 1017.2 |
| 20260507093515 | 67 | 266 | 1.7 | 3.5 | 0.03 | 0.03 | 0.00 | 65 | 1017.0 |
| 20260507093212 | 67 | 266 | 0.9 | 4.3 | 0.03 | 0.03 | 0.00 | 65 | 1017.3 |
| 20260507092908 | 66 | 266 | 0.0 | 4.3 | 0.03 | 0.03 | 0.00 | 67 | 1017.0 |
| 20260507092605 | 68 | 266 | 2.6 | 4.3 | 0.03 | 0.03 | 0.00 | 65 | 1017.1 |
| 20260507092302 | 68 | 266 | 0.0 | 3.5 | 0.03 | 0.03 | 0.00 | 63 | 1017.0 |
| 20260507091958 | 68 | 266 | 0.9 | 3.5 | 0.03 | 0.03 | 0.00 | 64 | 1017.0 |
| 20260507091655 | 68 | 266 | 0.9 | 3.5 | 0.03 | 0.03 | 0.00 | 64 | 1017.2 |
| 20260507091352 | 67 | 266 | 0.0 | 3.5 | 0.03 | 0.03 | 0.00 | 65 | 1017.2 |
| 20260507091048 | 67 | 266 | 1.7 | 3.5 | 0.03 | 0.03 | 0.00 | 65 | 1017.1 |
| 20260507090745 | 67 | 266 | 1.7 | 4.3 | 0.03 | 0.03 | 0.00 | 65 | 1016.9 |
| 20260507090442 | 66 | 266 | 0.0 | 3.5 | 0.03 | 0.03 | 0.00 | 66 | 1017.0 |
| 20260507090138 | 66 | 266 | 0.9 | 3.5 | 0.03 | 0.03 | 0.00 | 68 | 1017.1 |
| 20260507085835 | 65 | 266 | 0.0 | 3.5 | 0.03 | 0.03 | 0.00 | 69 | 1017.0 |
| 20260507085532 | 64 | 266 | 1.7 | 4.3 | 0.03 | 0.03 | 0.00 | 69 | 1017.0 |
| 20260507085228 | 65 | 266 | 2.6 | 3.5 | 0.03 | 0.03 | 0.00 | 68 | 1017.0 |
| 20260507084925 | 65 | 266 | 0.9 | 3.5 | 0.03 | 0.03 | 0.00 | 68 | 1017.0 |
| 20260507084622 | 66 | 266 | 2.6 | 3.5 | 0.03 | 0.03 | 0.00 | 67 | 1016.9 |
| 20260507084318 | 66 | 266 | 0.0 | 2.6 | 0.03 | 0.03 | 0.00 | 67 | 1016.8 |
| 20260507084015 | 66 | 266 | 0.0 | 3.5 | 0.03 | 0.03 | 0.00 | 68 | 1016.9 |
| 20260507083711 | 65 | 266 | 0.9 | 4.3 | 0.03 | 0.03 | 0.00 | 71 | 1016.8 |
| 20260507083408 | 64 | 266 | 2.6 | 5.2 | 0.03 | 0.03 | 0.00 | 70 | 1016.9 |
| 20260507083105 | 64 | 266 | 3.5 | 5.2 | 0.03 | 0.03 | 0.00 | 70 | 1016.9 |
| 20260507082801 | 65 | 266 | 2.6 | 4.3 | 0.03 | 0.03 | 0.00 | 70 | 1016.7 |
| 20260507082458 | 66 | 266 | 0.0 | 1.7 | 0.03 | 0.03 | 0.00 | 68 | 1016.8 |
| 20260507082155 | 65 | 266 | 0.0 | 0.9 | 0.03 | 0.03 | 0.00 | 68 | 1017.0 |
| 20260507081851 | 64 | 266 | 0.0 | 1.7 | 0.03 | 0.03 | 0.00 | 71 | 1016.7 |
| 20260507081548 | 64 | 266 | 0.9 | 1.7 | 0.03 | 0.03 | 0.00 | 71 | 1016.9 |
| 20260507081245 | 64 | 266 | 0.0 | 1.7 | 0.03 | 0.03 | 0.00 | 70 | 1016.7 |
| 20260507080941 | 64 | 266 | 0.9 | 2.6 | 0.03 | 0.03 | 0.00 | 71 | 1016.7 |
| 20260507080638 | 64 | 266 | 0.9 | 2.6 | 0.03 | 0.03 | 0.00 | 71 | 1016.9 |
| 20260507080334 | 64 | 266 | 0.0 | 2.6 | 0.03 | 0.03 | 0.00 | 70 | 1016.9 |
| 20260507080031 | 64 | 266 | 0.0 | 2.6 | 0.03 | 0.03 | 0.00 | 72 | 1016.7 |
| 20260507075728 | 64 | 266 | 0.0 | 2.6 | 0.03 | 0.03 | 0.00 | 70 | 1016.7 |
| 20260507075424 | 64 | 266 | 0.9 | 1.7 | 0.03 | 0.03 | 0.00 | 70 | 1016.7 |
| 20260507075121 | 64 | 266 | 0.0 | 1.7 | 0.03 | 0.03 | 0.00 | 70 | 1016.7 |
| 20260507074818 | 63 | 266 | 0.0 | 1.7 | 0.03 | 0.03 | 0.00 | 71 | 1016.7 |
| 20260507074514 | 63 | 266 | 0.0 | 1.7 | 0.03 | 0.03 | 0.00 | 71 | 1016.8 |
| 20260507074211 | 63 | 266 | 0.9 | 0.9 | 0.03 | 0.03 | 0.00 | 72 | 1016.7 |
| 20260507073908 | 63 | 266 | 0.0 | 0.0 | 0.03 | 0.03 | 0.00 | 72 | 1016.7 |
| 20260507073604 | 63 | 266 | 0.0 | 0.0 | 0.03 | 0.03 | 0.00 | 72 | 1016.5 |
| 20260507073301 | 62 | 266 | 0.0 | 0.0 | 0.03 | 0.03 | 0.00 | 73 | 1016.4 |
| 20260507072958 | 62 | 266 | 0.0 | 0.9 | 0.03 | 0.03 | 0.00 | 74 | 1016.4 |
| 20260507072654 | 62 | 266 | 0.0 | 0.9 | 0.03 | 0.03 | 0.00 | 75 | 1016.3 |
| 20260507072351 | 62 | 266 | 0.0 | 0.0 | 0.03 | 0.03 | 0.00 | 76 | 1016.4 |
| 20260507072048 | 62 | 266 | 0.0 | 0.0 | 0.03 | 0.03 | 0.00 | 76 | 1016.4 |
| 20260507071744 | 61 | 266 | 0.0 | 0.9 | 0.03 | 0.03 | 0.00 | 77 | 1016.5 |
| 20260507071441 | 61 | 266 | 0.0 | 0.9 | 0.03 | 0.03 | 0.00 | 78 | 1016.4 |
| 20260507071138 | 60 | 266 | 0.0 | 0.0 | 0.03 | 0.03 | 0.00 | 79 | 1016.4 |
| 20260507070834 | 60 | 266 | 0.0 | 0.0 | 0.03 | 0.03 | 0.00 | 79 | 1016.3 |
| 20260507070531 | 60 | 266 | 0.0 | 0.0 | 0.03 | 0.03 | 0.00 | 80 | 1016.3 |
| 20260507070227 | 59 | 266 | 0.0 | 0.0 | 0.03 | 0.03 | 0.00 | 80 | 1016.3 |
| 20260507065924 | 59 | 266 | 0.0 | 0.0 | 0.03 | 0.03 | 0.00 | 81 | 1016.1 |
| 20260507065621 | 59 | 266 | 0.0 | 0.0 | 0.03 | 0.03 | 0.00 | 81 | 1016.2 |
| 20260507065317 | 59 | 266 | 0.0 | 0.9 | 0.03 | 0.03 | 0.00 | 82 | 1016.3 |
| 20260507065014 | 58 | 266 | 0.9 | 1.7 | 0.03 | 0.03 | 0.00 | 82 | 1016.2 |
| 20260507064711 | 58 | 266 | 1.7 | 1.7 | 0.03 | 0.03 | 0.00 | 82 | 1016.2 |
| 20260507064407 | 59 | 266 | 0.9 | 2.6 | 0.03 | 0.03 | 0.00 | 82 | 1016.1 |
| 20260507064104 | 59 | 266 | 1.7 | 2.6 | 0.03 | 0.03 | 0.00 | 81 | 1016.2 |
| 20260507063801 | 60 | 266 | 0.0 | 0.0 | 0.03 | 0.03 | 0.00 | 81 | 1016.1 |
| 20260507063457 | 60 | 266 | 0.0 | 0.0 | 0.03 | 0.03 | 0.00 | 80 | 1016.2 |
| 20260507063154 | 59 | 266 | 0.0 | 0.0 | 0.03 | 0.03 | 0.00 | 81 | 1016.0 |
| 20260507062851 | 59 | 266 | 0.0 | 0.0 | 0.03 | 0.03 | 0.00 | 82 | 1016.0 |
| 20260507062547 | 58 | 266 | 0.0 | 0.0 | 0.03 | 0.03 | 0.00 | 82 | 1016.2 |
| 20260507062244 | 58 | 266 | 0.0 | 0.0 | 0.03 | 0.03 | 0.00 | 83 | 1016.0 |
| 20260507061940 | 58 | 266 | 0.0 | 0.0 | 0.03 | 0.03 | 0.00 | 83 | 1016.0 |
| 20260507061637 | 57 | 266 | 0.0 | 0.0 | 0.03 | 0.03 | 0.00 | 84 | 1016.0 |
| 20260507061334 | 57 | 266 | 0.0 | 0.0 | 0.03 | 0.03 | 0.00 | 85 | 1016.2 |
| 20260507061030 | 57 | 266 | 0.0 | 0.0 | 0.03 | 0.03 | 0.00 | 85 | 1016.1 |
| 20260507060727 | 57 | 266 | 0.0 | 0.0 | 0.03 | 0.03 | 0.00 | 85 | 1016.1 |
| 20260507060424 | 56 | 266 | 0.0 | 0.0 | 0.03 | 0.03 | 0.00 | 86 | 1016.1 |
| 20260507060120 | 56 | 266 | 0.0 | 0.0 | 0.03 | 0.03 | 0.00 | 86 | 1016.1 |
| 20260507055817 | 57 | 266 | 0.0 | 0.0 | 0.03 | 0.03 | 0.00 | 85 | 1016.0 |
| 20260507055514 | 56 | 266 | 0.0 | 0.0 | 0.03 | 0.03 | 0.00 | 86 | 1016.0 |
| 20260507055210 | 56 | 266 | 0.0 | 0.0 | 0.03 | 0.03 | 0.00 | 86 | 1016.0 |
| 20260507054907 | 56 | 266 | 0.0 | 0.0 | 0.03 | 0.03 | 0.00 | 87 | 1015.9 |
| 20260507054604 | 56 | 266 | 0.0 | 0.0 | 0.03 | 0.03 | 0.00 | 87 | 1015.7 |
| 20260507054300 | 56 | 266 | 0.0 | 0.0 | 0.03 | 0.03 | 0.00 | 87 | 1015.7 |
| 20260507053957 | 56 | 266 | 0.0 | 0.0 | 0.03 | 0.03 | 0.00 | 87 | 1015.6 |
| 20260507053654 | 56 | 266 | 0.0 | 0.0 | 0.03 | 0.03 | 0.00 | 87 | 1015.7 |
| 20260507053350 | 55 | 266 | 0.0 | 0.0 | 0.03 | 0.03 | 0.00 | 87 | 1015.6 |
| 20260507053047 | 55 | 266 | 0.0 | 0.0 | 0.03 | 0.03 | 0.00 | 87 | 1015.7 |
| 20260507052744 | 55 | 266 | 0.0 | 0.0 | 0.03 | 0.03 | 0.00 | 87 | 1015.5 |
| 20260507052440 | 55 | 266 | 0.0 | 0.0 | 0.03 | 0.03 | 0.00 | 87 | 1015.5 |
| 20260507052137 | 55 | 266 | 0.0 | 0.0 | 0.03 | 0.03 | 0.00 | 88 | 1015.3 |
| 20260507051833 | 55 | 266 | 0.0 | 0.0 | 0.03 | 0.03 | 0.00 | 88 | 1015.4 |
| 20260507051530 | 55 | 266 | 0.0 | 0.0 | 0.03 | 0.03 | 0.00 | 88 | 1015.5 |
| 20260507051227 | 54 | 266 | 0.0 | 0.0 | 0.03 | 0.03 | 0.00 | 88 | 1015.3 |
| 20260507050923 | 54 | 266 | 0.0 | 0.0 | 0.03 | 0.03 | 0.00 | 89 | 1015.2 |
| 20260507050620 | 54 | 266 | 0.0 | 0.0 | 0.03 | 0.03 | 0.00 | 89 | 1015.3 |
| 20260507050317 | 54 | 266 | 0.0 | 0.0 | 0.03 | 0.03 | 0.00 | 89 | 1015.3 |
| 20260507050013 | 54 | 266 | 0.0 | 0.0 | 0.03 | 0.03 | 0.00 | 89 | 1015.2 |
| 20260507045710 | 54 | 266 | 0.0 | 0.0 | 0.03 | 0.03 | 0.00 | 89 | 1015.2 |
| 20260507045406 | 54 | 266 | 0.0 | 0.0 | 0.03 | 0.03 | 0.00 | 89 | 1015.1 |
| 20260507045103 | 53 | 266 | 0.0 | 0.0 | 0.03 | 0.03 | 0.00 | 89 | 1014.8 |
| 20260507044800 | 53 | 266 | 0.0 | 0.0 | 0.03 | 0.03 | 0.00 | 89 | 1015.2 |
| 20260507044456 | 53 | 266 | 0.0 | 0.0 | 0.03 | 0.03 | 0.00 | 89 | 1015.1 |
| 20260507044153 | 53 | 266 | 0.0 | 0.0 | 0.03 | 0.03 | 0.00 | 90 | 1015.1 |
| 20260507043850 | 53 | 266 | 0.0 | 0.0 | 0.03 | 0.03 | 0.00 | 90 | 1014.9 |
| 20260507043546 | 53 | 266 | 0.0 | 0.0 | 0.03 | 0.03 | 0.00 | 90 | 1015.0 |
| 20260507043243 | 53 | 266 | 0.0 | 0.0 | 0.03 | 0.03 | 0.00 | 90 | 1015.0 |
| 20260507042940 | 53 | 266 | 0.0 | 0.0 | 0.03 | 0.03 | 0.00 | 90 | 1014.8 |
| 20260507042636 | 53 | 266 | 0.0 | 0.0 | 0.03 | 0.03 | 0.00 | 90 | 1015.0 |
| 20260507042333 | 53 | 266 | 0.0 | 0.0 | 0.03 | 0.03 | 0.00 | 90 | 1015.0 |
| 20260507042030 | 53 | 266 | 0.0 | 0.0 | 0.03 | 0.03 | 0.00 | 90 | 1014.9 |
| 20260507041726 | 53 | 266 | 0.0 | 0.0 | 0.03 | 0.03 | 0.00 | 90 | 1014.8 |
| 20260507041423 | 53 | 266 | 0.0 | 0.0 | 0.03 | 0.03 | 0.00 | 89 | 1015.0 |
| 20260507041120 | 53 | 266 | 0.0 | 0.0 | 0.03 | 0.03 | 0.00 | 89 | 1014.9 |
| 20260507040816 | 53 | 266 | 0.0 | 0.0 | 0.03 | 0.03 | 0.00 | 89 | 1014.7 |
| 20260507040513 | 53 | 266 | 0.0 | 0.0 | 0.03 | 0.03 | 0.00 | 89 | 1014.8 |
| 20260507040210 | 53 | 266 | 0.0 | 0.0 | 0.03 | 0.03 | 0.00 | 89 | 1014.9 |
| 20260507035906 | 53 | 266 | 0.0 | 0.0 | 0.03 | 0.03 | 0.00 | 89 | 1014.7 |
| 20260507035603 | 53 | 266 | 0.0 | 0.0 | 0.03 | 0.03 | 0.00 | 89 | 1014.8 |
| 20260507035259 | 53 | 266 | 0.0 | 0.0 | 0.03 | 0.03 | 0.00 | 89 | 1014.6 |
| 20260507034956 | 53 | 266 | 0.0 | 0.0 | 0.03 | 0.03 | 0.00 | 89 | 1014.5 |
| 20260507034653 | 53 | 266 | 0.0 | 0.0 | 0.03 | 0.03 | 0.00 | 89 | 1014.5 |
| 20260507034349 | 53 | 266 | 0.0 | 0.0 | 0.03 | 0.03 | 0.00 | 89 | 1014.5 |
| 20260507034046 | 53 | 266 | 0.0 | 0.0 | 0.03 | 0.03 | 0.00 | 89 | 1014.6 |
| 20260507033743 | 53 | 266 | 0.0 | 0.0 | 0.03 | 0.03 | 0.00 | 89 | 1014.5 |
| 20260507033439 | 53 | 266 | 0.0 | 0.9 | 0.03 | 0.03 | 0.00 | 89 | 1014.5 |
| 20260507033136 | 53 | 266 | 0.0 | 1.7 | 0.03 | 0.03 | 0.00 | 89 | 1014.4 |
| 20260507032833 | 53 | 266 | 0.9 | 1.7 | 0.03 | 0.03 | 0.00 | 89 | 1014.3 |
| 20260507032529 | 53 | 266 | 0.9 | 2.6 | 0.03 | 0.03 | 0.00 | 88 | 1014.2 |
| 20260507032226 | 53 | 266 | 1.7 | 1.7 | 0.03 | 0.03 | 0.00 | 89 | 1014.2 |
| 20260507031923 | 53 | 266 | 0.0 | 1.7 | 0.03 | 0.03 | 0.00 | 88 | 1014.4 |
| 20260507031619 | 54 | 266 | 0.9 | 1.7 | 0.03 | 0.03 | 0.00 | 88 | 1014.2 |
| 20260507031316 | 54 | 266 | 0.0 | 0.0 | 0.03 | 0.03 | 0.00 | 88 | 1014.4 |
| 20260507031012 | 54 | 266 | 0.0 | 0.0 | 0.03 | 0.03 | 0.00 | 88 | 1014.2 |
| 20260507030709 | 54 | 266 | 0.0 | 0.0 | 0.03 | 0.03 | 0.00 | 88 | 1014.2 |
| 20260507030406 | 54 | 266 | 0.0 | 0.0 | 0.03 | 0.03 | 0.00 | 88 | 1014.2 |
| 20260507025759 | 54 | 266 | 0.0 | 0.0 | 0.03 | 0.03 | 0.00 | 88 | 1014.1 |
| 20260507025456 | 54 | 266 | 0.0 | 1.7 | 0.03 | 0.03 | 0.00 | 87 | 1014.3 |
| 20260507025152 | 54 | 266 | 0.9 | 1.7 | 0.03 | 0.03 | 0.00 | 87 | 1014.1 |
| 20260507024849 | 55 | 266 | 0.0 | 0.9 | 0.03 | 0.03 | 0.00 | 87 | 1014.1 |
| 20260507024546 | 55 | 266 | 0.0 | 0.0 | 0.03 | 0.03 | 0.00 | 87 | 1014.3 |
| 20260507024242 | 55 | 266 | 0.0 | 0.0 | 0.03 | 0.03 | 0.00 | 87 | 1014.1 |
| 20260507023939 | 55 | 266 | 0.0 | 0.0 | 0.03 | 0.03 | 0.00 | 87 | 1014.3 |
| 20260507023636 | 55 | 266 | 0.0 | 0.0 | 0.03 | 0.03 | 0.00 | 87 | 1014.4 |
| 20260507023332 | 55 | 266 | 0.0 | 0.0 | 0.03 | 0.03 | 0.00 | 87 | 1014.0 |
| 20260507023029 | 55 | 266 | 0.0 | 0.0 | 0.03 | 0.03 | 0.00 | 87 | 1014.2 |
| 20260507022726 | 54 | 266 | 0.0 | 0.0 | 0.03 | 0.03 | 0.00 | 87 | 1014.2 |
| 20260507022422 | 54 | 266 | 0.0 | 0.0 | 0.03 | 0.03 | 0.00 | 87 | 1014.3 |
| 20260507022119 | 54 | 266 | 0.0 | 0.0 | 0.03 | 0.03 | 0.00 | 88 | 1014.3 |
| 20260507021816 | 54 | 266 | 0.0 | 0.0 | 0.03 | 0.03 | 0.00 | 88 | 1014.3 |
| 20260507021512 | 54 | 266 | 0.0 | 0.0 | 0.03 | 0.03 | 0.00 | 88 | 1014.1 |
| 20260507021209 | 54 | 266 | 0.0 | 0.0 | 0.03 | 0.03 | 0.00 | 88 | 1014.4 |
| 20260507020905 | 54 | 266 | 0.0 | 0.0 | 0.03 | 0.03 | 0.00 | 88 | 1014.4 |
| 20260507020602 | 54 | 266 | 0.0 | 0.9 | 0.03 | 0.03 | 0.00 | 88 | 1014.3 |
| 20260507020259 | 54 | 266 | 0.9 | 1.7 | 0.03 | 0.03 | 0.00 | 87 | 1014.4 |
| 20260507015955 | 54 | 266 | 0.9 | 2.6 | 0.03 | 0.03 | 0.00 | 87 | 1014.3 |
| 20260507015652 | 54 | 266 | 0.9 | 2.6 | 0.03 | 0.03 | 0.00 | 87 | 1014.2 |
| 20260507015349 | 54 | 266 | 1.7 | 2.6 | 0.03 | 0.03 | 0.00 | 86 | 1014.3 |
| 20260507015045 | 55 | 266 | 1.7 | 2.6 | 0.03 | 0.03 | 0.00 | 86 | 1014.2 |
| 20260507014742 | 55 | 266 | 0.9 | 1.7 | 0.03 | 0.03 | 0.00 | 87 | 1014.3 |
| 20260507014439 | 54 | 266 | 0.0 | 0.0 | 0.03 | 0.03 | 0.00 | 87 | 1014.0 |
| 20260507014135 | 54 | 266 | 0.0 | 0.0 | 0.03 | 0.03 | 0.00 | 87 | 1014.2 |
| 20260507013832 | 54 | 266 | 0.0 | 0.0 | 0.03 | 0.03 | 0.00 | 87 | 1014.1 |
| 20260507013529 | 54 | 266 | 0.0 | 0.0 | 0.03 | 0.03 | 0.00 | 87 | 1014.0 |
| 20260507013225 | 54 | 266 | 0.0 | 1.7 | 0.03 | 0.03 | 0.00 | 87 | 1014.1 |
| 20260507012922 | 54 | 266 | 0.9 | 1.7 | 0.03 | 0.03 | 0.00 | 87 | 1014.1 |
| 20260507012618 | 54 | 266 | 0.9 | 1.7 | 0.03 | 0.03 | 0.00 | 87 | 1014.2 |
| 20260507012315 | 54 | 266 | 0.0 | 0.0 | 0.03 | 0.03 | 0.00 | 87 | 1014.1 |
| 20260507012012 | 54 | 266 | 0.0 | 0.0 | 0.03 | 0.03 | 0.00 | 87 | 1014.0 |
| 20260507011709 | 54 | 266 | 0.0 | 0.0 | 0.03 | 0.03 | 0.00 | 87 | 1014.2 |
| 20260507011405 | 54 | 266 | 0.0 | 1.7 | 0.03 | 0.03 | 0.00 | 87 | 1014.1 |
| 20260507011102 | 54 | 266 | 0.9 | 1.7 | 0.03 | 0.03 | 0.00 | 87 | 1014.2 |
| 20260507010758 | 54 | 266 | 0.9 | 1.7 | 0.03 | 0.03 | 0.00 | 87 | 1014.1 |
| 20260507010455 | 54 | 266 | 0.9 | 1.7 | 0.03 | 0.03 | 0.00 | 87 | 1014.0 |
| 20260507010151 | 54 | 266 | 0.9 | 1.7 | 0.03 | 0.03 | 0.00 | 87 | 1014.2 |
| 20260507005848 | 54 | 266 | 0.0 | 1.7 | 0.03 | 0.03 | 0.00 | 87 | 1014.1 |
| 20260507005545 | 54 | 266 | 1.7 | 2.6 | 0.03 | 0.03 | 0.00 | 87 | 1014.3 |
| 20260507005242 | 54 | 266 | 0.9 | 2.6 | 0.03 | 0.03 | 0.00 | 87 | 1014.2 |
| 20260507004938 | 54 | 266 | 1.7 | 3.5 | 0.03 | 0.03 | 0.00 | 87 | 1013.9 |
| 20260507004635 | 54 | 266 | 2.6 | 3.5 | 0.03 | 0.03 | 0.00 | 87 | 1014.1 |
| 20260507004331 | 53 | 266 | 1.7 | 4.3 | 0.03 | 0.03 | 0.00 | 87 | 1014.2 |
| 20260507004028 | 53 | 266 | 2.6 | 4.3 | 0.03 | 0.03 | 0.00 | 87 | 1014.1 |
| 20260507003725 | 53 | 266 | 2.6 | 4.3 | 0.03 | 0.03 | 0.00 | 87 | 1014.1 |
| 20260507003421 | 53 | 266 | 1.7 | 3.5 | 0.03 | 0.03 | 0.00 | 87 | 1014.2 |
| 20260507003118 | 53 | 266 | 0.9 | 3.5 | 0.03 | 0.03 | 0.00 | 87 | 1013.9 |
| 20260507002815 | 53 | 262 | 2.6 | 4.3 | 0.03 | 0.03 | 0.00 | 87 | 1014.1 |
| 20260507002511 | 53 | 257 | 2.6 | 5.2 | 0.03 | 0.03 | 0.00 | 87 | 1014.0 |
| 20260507002208 | 53 | 253 | 3.5 | 4.3 | 0.03 | 0.03 | 0.00 | 87 | 1013.9 |
| 20260507001905 | 53 | 250 | 1.7 | 2.6 | 0.03 | 0.03 | 0.00 | 87 | 1013.9 |
| 20260507001601 | 53 | 246 | 0.9 | 2.6 | 0.03 | 0.03 | 0.00 | 87 | 1014.2 |
| 20260507001258 | 54 | 241 | 1.7 | 3.5 | 0.03 | 0.03 | 0.00 | 87 | 1014.0 |
| 20260507000955 | 54 | 239 | 2.6 | 3.5 | 0.03 | 0.03 | 0.00 | 87 | 1014.1 |
| 20260507000651 | 54 | 235 | 1.7 | 2.6 | 0.03 | 0.03 | 0.00 | 86 | 1014.0 |
| 20260507000350 | 54 | 226 | 0.0 | 0.0 | 0.03 | 0.03 | 0.00 | 86 | 1014.1 |
| 20260507000044 | 54 | 215 | 0.0 | 1.7 | 0.03 | 0.03 | 0.00 | 86 | 1014.0 |
| 20260506235741 | 54 | 204 | 0.9 | 1.7 | 0.03 | 0.03 | 0.00 | 86 | 1014.0 |
| 20260506235438 | 54 | 184 | 0.0 | 1.7 | 0.03 | 0.03 | 0.00 | 86 | 1014.0 |
| 20260506235134 | 54 | 165 | 0.9 | 2.6 | 0.03 | 0.03 | 0.00 | 85 | 1014.1 |
| 20260506234831 | 55 | 152 | 1.7 | 2.6 | 0.03 | 0.03 | 0.00 | 84 | 1014.1 |
| 20260506234528 | 55 | 132 | 0.0 | 0.0 | 0.03 | 0.03 | 0.00 | 84 | 1014.2 |
| 20260506234224 | 55 | 133 | 0.0 | 1.7 | 0.03 | 0.03 | 0.00 | 83 | 1014.1 |
| 20260506233921 | 56 | 132 | 0.9 | 2.6 | 0.03 | 0.03 | 0.00 | 82 | 1014.0 |
| 20260506233618 | 57 | 122 | 0.9 | 2.6 | 0.03 | 0.03 | 0.00 | 81 | 1013.8 |
| 20260506233314 | 59 | 116 | 1.7 | 3.5 | 0.03 | 0.03 | 0.00 | 79 | 1013.8 |
| 20260506233011 | 60 | 109 | 0.9 | 1.7 | 0.03 | 0.03 | 0.00 | 77 | 1014.0 |
| 20260506232708 | 59 | 109 | 0.9 | 2.6 | 0.03 | 0.03 | 0.00 | 77 | 1013.9 |
| 20260506232404 | 59 | 108 | 0.0 | 3.5 | 0.03 | 0.03 | 0.00 | 77 | 1013.7 |
| 20260506232101 | 59 | 106 | 0.9 | 3.5 | 0.03 | 0.03 | 0.00 | 78 | 1013.9 |
| 20260506231758 | 59 | 102 | 0.0 | 2.6 | 0.03 | 0.03 | 0.00 | 79 | 1014.1 |
| 20260506231454 | 59 | 100 | 0.0 | 1.7 | 0.03 | 0.03 | 0.00 | 78 | 1014.1 |
| 20260506231151 | 59 | 98 | 0.0 | 0.0 | 0.03 | 0.03 | 0.00 | 79 | 1014.1 |
| 20260506230847 | 59 | 98 | 0.0 | 1.7 | 0.03 | 0.03 | 0.00 | 78 | 1014.1 |
| 20260506230544 | 59 | 98 | 0.0 | 2.6 | 0.03 | 0.03 | 0.00 | 78 | 1014.0 |
| 20260506230241 | 58 | 96 | 0.9 | 1.7 | 0.03 | 0.03 | 0.00 | 80 | 1014.1 |
| 20260506225937 | 58 | 96 | 0.0 | 0.0 | 0.03 | 0.03 | 0.00 | 80 | 1013.9 |
| 20260506225634 | 59 | 98 | 0.0 | 0.0 | 0.03 | 0.03 | 0.00 | 79 | 1014.0 |
| 20260506225331 | 59 | 99 | 0.0 | 0.0 | 0.03 | 0.03 | 0.00 | 78 | 1014.1 |
| 20260506225027 | 60 | 101 | 0.0 | 1.7 | 0.03 | 0.03 | 0.00 | 78 | 1014.0 |
| 20260506224724 | 60 | 102 | 0.0 | 1.7 | 0.03 | 0.03 | 0.00 | 77 | 1014.0 |
| 20260506224421 | 59 | 101 | 0.9 | 1.7 | 0.03 | 0.03 | 0.00 | 78 | 1014.0 |
| 20260506224118 | 59 | 101 | 0.0 | 0.9 | 0.03 | 0.03 | 0.00 | 78 | 1013.8 |
| 20260506223814 | 59 | 104 | 0.0 | 5.2 | 0.03 | 0.03 | 0.00 | 78 | 1014.0 |
| 20260506223511 | 59 | 103 | 0.0 | 5.2 | 0.03 | 0.03 | 0.00 | 78 | 1013.9 |
| 20260506223207 | 59 | 100 | 0.0 | 2.6 | 0.03 | 0.03 | 0.00 | 79 | 1014.1 |
| 20260506222904 | 59 | 100 | 0.0 | 0.0 | 0.03 | 0.03 | 0.00 | 79 | 1014.1 |
| 20260506222601 | 59 | 102 | 0.0 | 0.0 | 0.03 | 0.03 | 0.00 | 79 | 1014.0 |
| 20260506222257 | 59 | 104 | 0.0 | 2.6 | 0.03 | 0.03 | 0.00 | 78 | 1014.0 |
| 20260506221954 | 60 | 106 | 0.0 | 4.3 | 0.03 | 0.03 | 0.00 | 78 | 1013.9 |
| 20260506221651 | 60 | 106 | 0.9 | 5.2 | 0.03 | 0.03 | 0.00 | 78 | 1013.9 |
| 20260506221347 | 60 | 101 | 0.9 | 2.6 | 0.03 | 0.03 | 0.00 | 78 | 1013.8 |
| 20260506221044 | 60 | 101 | 0.0 | 2.6 | 0.03 | 0.03 | 0.00 | 78 | 1013.8 |
| 20260506220741 | 60 | 99 | 0.0 | 0.9 | 0.03 | 0.03 | 0.00 | 78 | 1013.9 |
| 20260506220437 | 60 | 101 | 0.0 | 4.3 | 0.03 | 0.03 | 0.00 | 78 | 1013.8 |
| 20260506220134 | 59 | 100 | 0.0 | 1.7 | 0.03 | 0.03 | 0.00 | 78 | 1014.0 |
| 20260506215830 | 60 | 101 | 0.0 | 1.7 | 0.03 | 0.03 | 0.00 | 78 | 1013.9 |
| 20260506215527 | 60 | 103 | 0.0 | 1.7 | 0.03 | 0.03 | 0.00 | 78 | 1014.0 |
| 20260506215224 | 60 | 104 | 0.0 | 3.5 | 0.03 | 0.03 | 0.00 | 78 | 1014.0 |
| 20260506214920 | 60 | 105 | 0.0 | 5.2 | 0.03 | 0.03 | 0.00 | 78 | 1013.9 |
| 20260506214617 | 60 | 104 | 0.9 | 5.2 | 0.03 | 0.03 | 0.00 | 77 | 1013.9 |
| 20260506214314 | 60 | 101 | 0.9 | 2.6 | 0.03 | 0.03 | 0.00 | 77 | 1013.8 |
| 20260506214010 | 60 | 102 | 0.0 | 2.6 | 0.03 | 0.03 | 0.00 | 77 | 1013.8 |
| 20260506213707 | 60 | 101 | 0.0 | 2.6 | 0.03 | 0.03 | 0.00 | 78 | 1013.6 |
| 20260506213404 | 60 | 102 | 1.7 | 1.7 | 0.03 | 0.03 | 0.00 | 77 | 1013.7 |
| 20260506213100 | 60 | 101 | 0.9 | 2.6 | 0.03 | 0.03 | 0.00 | 77 | 1013.7 |
| 20260506212757 | 60 | 103 | 0.0 | 4.3 | 0.03 | 0.03 | 0.00 | 77 | 1013.6 |
| 20260506212453 | 60 | 101 | 0.0 | 4.3 | 0.03 | 0.03 | 0.00 | 77 | 1013.6 |
| 20260506212150 | 60 | 101 | 0.0 | 4.3 | 0.03 | 0.03 | 0.00 | 77 | 1013.8 |
| 20260506211847 | 60 | 99 | 0.9 | 4.3 | 0.03 | 0.03 | 0.00 | 77 | 1013.8 |
| 20260506211543 | 60 | 94 | 0.0 | 0.9 | 0.03 | 0.03 | 0.00 | 77 | 1013.8 |
| 20260506211240 | 60 | 95 | 0.0 | 1.7 | 0.03 | 0.03 | 0.00 | 77 | 1013.6 |
| 20260506210937 | 60 | 94 | 0.0 | 1.7 | 0.03 | 0.03 | 0.00 | 77 | 1013.7 |
| 20260506210633 | 60 | 94 | 0.0 | 0.9 | 0.03 | 0.03 | 0.00 | 77 | 1013.5 |
| 20260506210330 | 60 | 96 | 0.0 | 0.0 | 0.03 | 0.03 | 0.00 | 77 | 1013.7 |
| 20260506210026 | 60 | 97 | 0.0 | 0.9 | 0.03 | 0.03 | 0.00 | 76 | 1013.7 |
| 20260506205723 | 61 | 99 | 0.0 | 7.0 | 0.03 | 0.03 | 0.00 | 76 | 1013.6 |
| 20260506205420 | 61 | 101 | 2.6 | 7.0 | 0.03 | 0.03 | 0.00 | 76 | 1013.5 |
| 20260506205117 | 61 | 99 | 0.9 | 3.5 | 0.03 | 0.03 | 0.00 | 76 | 1013.8 |
| 20260506204813 | 61 | 98 | 0.0 | 3.5 | 0.03 | 0.03 | 0.00 | 76 | 1013.4 |
| 20260506204510 | 61 | 96 | 0.0 | 1.7 | 0.03 | 0.03 | 0.00 | 76 | 1013.6 |
| 20260506204206 | 61 | 97 | 0.0 | 4.3 | 0.03 | 0.03 | 0.00 | 75 | 1013.4 |
| 20260506203903 | 61 | 96 | 0.0 | 2.6 | 0.03 | 0.03 | 0.00 | 75 | 1013.6 |
| 20260506203600 | 61 | 97 | 1.7 | 5.2 | 0.03 | 0.03 | 0.00 | 75 | 1013.7 |
| 20260506203256 | 61 | 98 | 0.0 | 5.2 | 0.03 | 0.03 | 0.00 | 75 | 1013.4 |
| 20260506202953 | 61 | 97 | 0.0 | 2.6 | 0.03 | 0.03 | 0.00 | 74 | 1013.5 |
| 20260506202650 | 62 | 98 | 0.9 | 2.6 | 0.03 | 0.03 | 0.00 | 74 | 1013.4 |
| 20260506202346 | 62 | 96 | 0.9 | 2.6 | 0.03 | 0.03 | 0.00 | 74 | 1013.7 |
| 20260506202043 | 62 | 95 | 0.0 | 2.6 | 0.03 | 0.03 | 0.00 | 74 | 1013.6 |
| 20260506201740 | 62 | 95 | 0.0 | 1.7 | 0.03 | 0.03 | 0.00 | 74 | 1013.8 |
| 20260506201436 | 62 | 96 | 0.0 | 3.5 | 0.03 | 0.03 | 0.00 | 73 | 1013.8 |